QPF
0.00 0.00 0.00 0.00 0.00 0.00 0.00 0.00 0.00 0.00 0.00 0.00 0.00 0.00 0.00 0.00 0.00 0.00 0.00 0.00 0.00 0.00 0.00 0.00 0.00 0.00 0.00 0.00 0.00 0.02 0.01 0.00 0.02 0.02 0.01 0.01 0.04 0.05 0.00 0.00 0.00 0.00 0.00
0.00 0.00 0.00 0.00 0.00 0.00 0.00 0.00 0.00 0.00 0.00 0.00 0.00 0.00 0.00 0.00 0.00 0.00 0.00 0.00 0.00 0.01 0.00 0.00 0.01 0.01 0.00 0.01 0.01 0.00 0.00 0.01 0.02 0.01 0.01 0.01 0.02 0.00 0.01 0.01 0.00 0.00 0.00
0.00 0.00 0.00 0.00 0.00 0.01 0.00 0.00 0.00 0.00 0.00 0.00 0.00 0.00 0.00 0.00 0.00 0.00 0.00 0.00 0.00 0.01 0.02 0.03 0.03 0.02 0.01 0.00 0.00 0.00 0.00 0.02 0.05 0.09 0.07 0.02 0.03 0.00 0.00 0.01 0.00 0.00 0.00
0.00 0.00 0.00 0.00 0.00 0.00 0.00 0.00 0.00 0.00 0.00 0.00 0.00 0.00 0.00 0.00 0.00 0.00 0.00 0.00 0.00 0.07 0.06 0.02 0.03 0.05 0.00 0.00 0.00 0.00 0.00 0.02 0.08 0.13 0.11 0.01 0.00 0.01 0.00 0.00 0.02 0.03 0.03
0.00 0.00 0.00 0.00 0.00 0.00 0.00 0.00 0.00 0.00 0.00 0.00 0.00 0.00 0.00 0.00 0.02 0.01 0.00 0.00 0.02 0.05 0.00 0.00 0.00 0.01 0.09 0.01 0.00 0.00 0.00 0.01 0.02 0.07 0.03 0.00 0.00 0.06 0.01 0.00 0.00 0.03 0.05
0.00 0.00 0.00 0.00 0.00 0.00 0.00 0.00 0.00 0.00 0.00 0.00 0.00 0.01 0.00 0.01 0.02 0.02 0.00 0.00 0.00 0.00 0.00 0.00 0.00 0.00 0.05 0.04 0.00 0.00 0.00 0.00 0.01 0.00 0.00 0.00 0.00 0.04 0.01 0.00 0.00 0.01 0.05
0.00 0.00 0.00 0.00 0.00 0.00 0.00 0.00 0.00 0.00 0.00 0.00 0.00 0.00 0.00 0.01 0.03 0.01 0.00 0.00 0.00 0.00 0.00 0.00 0.00 0.00 0.00 0.00 0.00 0.00 0.00 0.00 0.01 0.00 0.00 0.05 0.01 0.02 0.00 0.00 0.00 0.00 0.06
0.00 0.00 0.00 0.00 0.00 0.00 0.00 0.00 0.00 0.00 0.00 0.00 0.00 0.01 0.00 0.01 0.02 0.03 0.03 0.00 0.00 0.00 0.00 0.00 0.00 0.00 0.00 0.00 0.00 0.00 0.00 0.00 0.01 0.00 0.01 0.00 0.04 0.01 0.00 0.00 0.00 0.00 0.02
0.00 0.00 0.00 0.00 0.00 0.00 0.00 0.00 0.00 0.00 0.00 0.00 0.00 0.00 0.00 0.00 0.00 0.00 0.02 0.00 0.00 0.00 0.00 0.00 0.00 0.00 0.00 0.00 0.00 0.00 0.00 0.00 0.01 0.00 0.00 0.00 0.02 0.02 0.00 0.00 0.00 0.00 0.00
0.00 0.00 0.00 0.00 0.00 0.00 0.00 0.00 0.00 0.02 0.00 0.00 0.00 0.00 0.00 0.00 0.00 0.00 0.00 0.00 0.01 0.01 0.00 0.00 0.00 0.00 0.00 0.00 0.00 0.00 0.00 0.00 0.00 0.01 0.00 0.00 0.00 0.04 0.01 0.00 0.00 0.00 0.00
0.00 0.00 0.00 0.00 0.00 0.00 0.00 0.00 0.00 0.00 0.00 0.00 0.00 0.00 0.00 0.00 0.00 0.00 0.00 0.00 0.00 0.01 0.00 0.00 0.00 0.00 0.00 0.00 0.00 0.00 0.00 0.00 0.00 0.00 0.03 0.03 0.00 0.00 0.01 0.01 0.00 0.01 0.00
0.00 0.00 0.00 0.00 0.00 0.00 0.00 0.01 0.00 0.00 0.02 0.00 0.00 0.00 0.00 0.00 0.00 0.00 0.00 0.00 0.00 0.00 0.00 0.00 0.00 0.00 0.00 0.00 0.00 0.00 0.00 0.00 0.00 0.00 0.02 0.01 0.00 0.03 0.06 0.02 0.01 0.02 0.00
0.00 0.00 0.00 0.00 0.00 0.00 0.00 0.00 0.00 0.01 0.08 0.04 0.03 0.00 0.00 0.00 0.00 0.00 0.00 0.00 0.00 0.00 0.00 0.00 0.00 0.00 0.00 0.00 0.01 0.01 0.01 0.00 0.00 0.00 0.00 0.00 0.01 0.03 0.08 0.06 0.02 0.02 0.01
0.00 0.00 0.00 0.00 0.00 0.00 0.00 0.00 0.00 0.02 0.03 0.02 0.02 0.02 0.03 0.00 0.00 0.00 0.00 0.00 0.00 0.00 0.00 0.00 0.01 0.02 0.06 0.04 0.01 0.01 0.01 0.00 0.00 0.00 0.00 0.00 0.00 0.00 0.00 0.00 0.00 0.01 0.02
0.00 0.00 0.00 0.00 0.00 0.00 0.00 0.00 0.00 0.00 0.02 0.02 0.06 0.01 0.01 0.02 0.01 0.00 0.01 0.02 0.00 0.00 0.00 0.00 0.08 0.16 0.04 0.04 0.01 0.10 0.02 0.01 0.01 0.00 0.00 0.00 0.00 0.01 0.00 0.00 0.00 0.00 0.01
0.00 0.00 0.00 0.00 0.00 0.00 0.00 0.00 0.00 0.00 0.01 0.10 0.02 0.04 0.11 0.03 0.08 0.11 0.10 0.18 0.05 0.00 0.00 0.01 0.11 0.11 0.05 0.02 0.00 0.06 0.07 0.07 0.07 0.01 0.01 0.00 0.00 0.00 0.00 0.00 0.00 0.00 0.00
0.00 0.00 0.00 0.00 0.00 0.00 0.00 0.00 0.00 0.00 0.01 0.03 0.06 0.09 0.07 0.03 0.20 0.17 0.16 0.10 0.03 0.00 0.00 0.00 0.16 0.23 0.05 0.05 0.03 0.10 0.13 0.12 0.14 0.12 0.05 0.00 0.00 0.00 0.00 0.00 0.00 0.00 0.00
0.00 0.00 0.00 0.00 0.00 0.00 0.00 0.00 0.00 0.00 0.01 0.04 0.02 0.00 0.00 0.00 0.20 0.15 0.12 0.12 0.02 0.00 0.00 0.00 0.08 0.15 0.03 0.04 0.08 0.15 0.14 0.14 0.18 0.15 0.06 0.00 0.01 0.00 0.00 0.00 0.00 0.00 0.00
0.00 0.00 0.00 0.01 0.02 0.00 0.00 0.00 0.00 0.00 0.00 0.06 0.11 0.02 0.14 0.06 0.19 0.19 0.11 0.20 0.03 0.00 0.00 0.01 0.10 0.10 0.04 0.00 0.02 0.14 0.07 0.14 0.15 0.18 0.13 0.06 0.02 0.00 0.00 0.00 0.00 0.00 0.00
0.01 0.02 0.00 0.04 0.03 0.01 0.00 0.01 0.03 0.02 0.00 0.00 0.12 0.12 0.27 0.01 0.08 0.13 0.10 0.20 0.07 0.02 0.00 0.03 0.08 0.10 0.07 0.00 0.05 0.25 0.14 0.12 0.14 0.14 0.15 0.12 0.02 0.00 0.00 0.01 0.00 0.00 0.00
0.02 0.03 0.04 0.06 0.09 0.04 0.00 0.00 0.01 0.04 0.01 0.06 0.11 0.29 0.18 0.05 0.03 0.17 0.16 0.14 0.06 0.03 0.02 0.03 0.07 0.16 0.05 0.02 0.12 0.07 0.06 0.11 0.08 0.03 0.06 0.13 0.10 0.02 0.01 0.00 0.00 0.00 0.00
0.08 0.16 0.24 0.19 0.18 0.05 0.00 0.02 0.05 0.13 0.09 0.06 0.10 0.18 0.10 0.03 0.05 0.13 0.14 0.17 0.25 0.16 0.03 0.02 0.05 0.13 0.12 0.00 0.05 0.01 0.05 0.14 0.13 0.07 0.02 0.08 0.07 0.02 0.00 0.00 0.00 0.00 0.00
0.07 0.15 0.15 0.16 0.11 0.04 0.02 0.10 0.14 0.16 0.13 0.21 0.16 0.06 0.05 0.03 0.02 0.04 0.13 0.13 0.03 0.12 0.06 0.01 0.01 0.02 0.12 0.07 0.03 0.08 0.00 0.07 0.11 0.13 0.08 0.00 0.06 0.06 0.00 0.00 0.00 0.00 0.00
0.02 0.08 0.05 0.05 0.05 0.05 0.05 0.14 0.10 0.16 0.18 0.13 0.09 0.05 0.02 0.00 0.00 0.00 0.04 0.05 0.02 0.05 0.05 0.01 0.00 0.00 0.03 0.13 0.01 0.12 0.03 0.09 0.14 0.14 0.11 0.07 0.07 0.04 0.01 0.00 0.00 0.00 0.00
0.00 0.02 0.12 0.12 0.06 0.03 0.06 0.12 0.18 0.18 0.23 0.18 0.09 0.02 0.00 0.00 0.00 0.01 0.04 0.12 0.06 0.11 0.08 0.00 0.00 0.00 0.00 0.03 0.07 0.20 0.07 0.06 0.03 0.17 0.14 0.06 0.02 0.00 0.00 0.00 0.00 0.00 0.00
0.00 0.00 0.02 0.03 0.01 0.01 0.04 0.02 0.09 0.12 0.14 0.09 0.03 0.00 0.00 0.00 0.01 0.13 0.07 0.10 0.08 0.09 0.09 0.03 0.05 0.02 0.00 0.00 0.08 0.13 0.07 0.03 0.06 0.15 0.06 0.03 0.01 0.01 0.00 0.00 0.00 0.00 0.00
MSLP
1010.09 1011.20 1011.96 1012.11 1012.34 1012.79 1013.13 1013.50 1013.84 1014.22 1014.56 1014.80 1015.06 1015.24 1015.48 1015.58 1015.59 1015.71 1015.84 1016.02 1016.19 1016.24 1016.24 1016.33 1016.33 1016.36 1016.41 1016.46 1016.49 1016.58 1016.77 1016.95 1017.03 1017.10 1017.18 1017.42 1017.56 1017.55 1017.59 1017.53 1017.47 1017.91 1018.41
1009.87 1011.20 1012.15 1012.37 1012.56 1012.87 1013.31 1013.70 1014.12 1014.45 1014.86 1015.12 1015.29 1015.41 1015.62 1015.77 1015.85 1015.98 1016.07 1016.22 1016.32 1016.48 1016.49 1016.60 1016.67 1016.61 1016.65 1016.68 1016.69 1016.75 1016.97 1017.18 1017.27 1017.33 1017.36 1017.62 1017.77 1017.81 1017.82 1017.81 1017.94 1018.45 1018.63
1009.96 1011.42 1012.10 1012.66 1012.93 1013.22 1013.67 1014.00 1014.37 1014.72 1015.02 1015.35 1015.55 1015.66 1015.77 1015.98 1016.08 1016.23 1016.37 1016.45 1016.50 1016.64 1016.69 1016.87 1016.91 1017.00 1016.94 1016.86 1016.88 1017.02 1017.27 1017.29 1017.37 1017.37 1017.24 1017.12 1017.74 1018.11 1018.20 1018.36 1018.64 1018.76 1018.84
1009.91 1011.03 1012.01 1012.96 1013.31 1013.59 1013.94 1014.21 1014.53 1014.96 1015.25 1015.56 1015.79 1015.91 1016.00 1016.13 1016.34 1016.48 1016.59 1016.70 1016.74 1016.97 1016.97 1017.05 1017.11 1017.09 1017.20 1017.22 1017.30 1017.32 1017.43 1017.33 1017.34 1017.31 1016.92 1016.93 1017.36 1018.44 1018.59 1018.80 1018.94 1019.15 1019.24
1010.33 1010.82 1012.62 1013.21 1013.52 1013.93 1014.22 1014.54 1014.86 1015.19 1015.49 1015.68 1015.92 1016.09 1016.18 1016.39 1016.56 1016.70 1016.81 1016.91 1017.01 1017.02 1017.27 1017.29 1017.30 1017.30 1017.39 1017.48 1017.59 1017.58 1017.62 1017.37 1017.13 1016.92 1016.48 1017.15 1017.42 1018.72 1018.91 1019.04 1019.22 1019.34 1019.26
1010.87 1011.36 1013.27 1013.59 1013.94 1014.25 1014.68 1014.91 1015.12 1015.41 1015.67 1015.81 1015.99 1016.22 1016.42 1016.64 1016.86 1016.88 1016.94 1017.05 1017.17 1017.32 1017.49 1017.55 1017.56 1017.49 1017.37 1017.65 1017.83 1017.83 1017.68 1017.51 1017.37 1016.76 1016.96 1017.55 1017.85 1018.90 1019.15 1019.19 1019.40 1019.62 1019.81
1011.28 1012.09 1013.22 1013.90 1014.13 1014.52 1014.88 1015.20 1015.44 1015.64 1015.79 1016.02 1016.21 1016.47 1016.72 1016.94 1017.05 1017.07 1017.10 1017.14 1017.30 1017.36 1017.50 1017.63 1017.75 1017.78 1017.83 1017.81 1017.88 1017.96 1017.88 1017.56 1017.33 1017.10 1017.22 1018.18 1018.54 1019.07 1019.28 1019.60 1019.71 1019.91 1020.17
1011.51 1012.04 1013.21 1014.07 1014.40 1014.73 1014.99 1015.38 1015.69 1015.84 1016.02 1016.11 1016.26 1016.49 1016.80 1016.97 1017.19 1017.26 1017.25 1017.28 1017.38 1017.46 1017.51 1017.63 1017.80 1017.91 1017.91 1017.90 1017.96 1018.02 1017.98 1017.81 1017.50 1017.08 1017.72 1018.07 1019.10 1019.25 1019.43 1019.78 1019.87 1020.05 1020.36
1010.69 1011.66 1013.26 1013.90 1014.51 1015.04 1015.33 1015.60 1015.85 1015.99 1016.23 1016.39 1016.53 1016.64 1016.78 1016.96 1017.20 1017.40 1017.45 1017.40 1017.48 1017.58 1017.62 1017.77 1017.88 1018.01 1017.97 1017.95 1018.06 1018.09 1018.12 1018.05 1018.14 1017.21 1017.21 1018.03 1019.38 1019.48 1019.69 1019.92 1020.04 1020.25 1020.53
1010.37 1011.76 1013.04 1013.53 1014.23 1014.80 1015.26 1015.80 1016.00 1016.22 1016.31 1016.44 1016.58 1016.73 1016.90 1016.64 1017.12 1017.44 1017.52 1017.51 1017.61 1017.69 1017.70 1017.76 1017.90 1017.95 1017.95 1018.00 1018.06 1018.10 1018.20 1018.05 1017.31 1018.54 1017.78 1018.14 1019.34 1019.61 1019.80 1020.00 1020.14 1020.41 1020.69
1010.65 1011.85 1012.45 1013.08 1013.88 1014.55 1014.95 1015.75 1016.22 1016.40 1016.53 1016.65 1016.80 1016.96 1017.06 1016.73 1016.65 1017.07 1017.24 1017.52 1017.57 1017.69 1017.68 1017.75 1017.79 1017.89 1017.95 1017.89 1017.95 1018.11 1018.23 1017.40 1017.46 1017.64 1018.55 1018.51 1019.10 1019.62 1019.86 1020.01 1020.21 1020.56 1020.69
1010.55 1011.61 1012.17 1012.63 1013.37 1014.03 1014.22 1015.31 1015.76 1016.13 1016.25 1016.32 1016.48 1016.89 1016.97 1016.55 1016.69 1016.71 1016.82 1017.24 1017.41 1017.51 1017.47 1017.56 1017.53 1017.49 1017.62 1016.79 1017.47 1018.00 1018.06 1017.61 1017.74 1017.65 1018.57 1018.94 1019.18 1019.50 1019.84 1020.02 1020.33 1020.61 1020.81
1010.49 1011.24 1012.25 1012.31 1013.43 1013.53 1013.86 1014.62 1014.89 1015.55 1016.31 1016.10 1016.42 1016.93 1016.71 1016.46 1016.53 1016.65 1016.58 1016.78 1016.47 1016.97 1016.64 1016.84 1016.72 1016.77 1016.32 1016.67 1016.90 1017.16 1017.12 1017.39 1017.24 1017.55 1018.34 1019.02 1019.24 1019.63 1019.96 1020.26 1020.43 1020.63 1020.87
1010.42 1011.12 1011.83 1012.52 1012.69 1012.80 1013.20 1013.69 1014.14 1014.99 1015.67 1015.55 1015.56 1016.18 1016.33 1016.33 1016.11 1016.33 1016.55 1016.97 1016.61 1016.27 1016.61 1016.25 1016.12 1016.08 1016.21 1016.64 1016.27 1016.58 1017.06 1016.93 1017.55 1017.44 1018.13 1018.78 1019.23 1019.48 1019.98 1020.26 1020.47 1020.72 1020.94
1010.14 1010.96 1011.46 1012.12 1012.81 1012.91 1013.27 1013.43 1013.55 1014.16 1015.12 1014.84 1015.08 1015.60 1015.85 1016.21 1016.19 1016.22 1016.20 1016.39 1016.63 1016.41 1016.12 1016.04 1016.39 1016.79 1016.94 1016.54 1016.57 1016.82 1016.49 1016.57 1017.30 1017.37 1017.87 1018.58 1019.08 1019.54 1019.94 1020.13 1020.30 1020.60 1020.94
1009.90 1010.74 1011.35 1012.21 1012.98 1013.34 1013.62 1013.82 1013.91 1014.48 1014.48 1015.71 1015.45 1015.51 1015.98 1015.90 1016.19 1016.10 1016.23 1016.45 1016.45 1015.64 1015.61 1015.58 1016.38 1016.68 1016.96 1017.09 1016.65 1016.41 1016.82 1016.86 1017.39 1017.43 1017.46 1018.36 1018.81 1019.44 1019.71 1020.06 1020.25 1020.52 1020.76
1009.98 1010.67 1011.48 1012.11 1012.59 1013.54 1013.89 1014.09 1014.11 1014.42 1014.64 1014.93 1015.35 1015.92 1016.18 1016.20 1016.23 1016.32 1016.24 1016.36 1015.91 1015.22 1015.41 1015.37 1016.19 1016.59 1017.09 1016.90 1016.46 1015.82 1016.36 1016.55 1017.43 1017.63 1017.42 1017.41 1018.39 1019.15 1019.45 1019.71 1020.10 1020.38 1020.54
1010.52 1011.41 1012.11 1012.23 1012.47 1013.22 1013.74 1014.14 1013.91 1013.63 1013.93 1014.14 1015.47 1015.68 1016.27 1016.22 1015.86 1016.11 1016.12 1015.95 1015.33 1014.98 1014.99 1015.18 1015.87 1016.42 1016.67 1016.70 1016.11 1015.77 1015.94 1015.99 1016.58 1016.83 1016.65 1016.91 1017.50 1017.87 1018.99 1019.43 1019.75 1020.13 1020.37
1010.35 1011.42 1012.31 1012.68 1012.87 1013.26 1013.92 1014.24 1013.98 1013.71 1013.84 1014.61 1015.31 1015.45 1015.42 1015.55 1015.63 1015.79 1015.78 1015.51 1015.14 1014.81 1015.14 1015.04 1015.86 1016.07 1016.36 1016.34 1015.99 1015.58 1015.43 1015.85 1016.07 1016.53 1016.76 1016.67 1017.03 1017.26 1017.43 1018.61 1019.29 1019.67 1020.01
1010.29 1011.33 1012.12 1013.07 1013.78 1014.11 1014.33 1014.62 1014.55 1013.67 1013.85 1013.54 1014.27 1014.83 1015.26 1015.55 1015.34 1015.05 1014.84 1014.99 1014.98 1014.94 1015.03 1015.28 1015.56 1015.45 1015.88 1015.49 1015.25 1015.42 1015.24 1015.56 1015.84 1016.27 1016.47 1016.68 1016.55 1017.02 1017.10 1017.57 1018.62 1019.05 1019.59
1010.11 1010.85 1011.82 1012.86 1013.56 1013.84 1015.31 1015.39 1014.67 1014.30 1013.65 1013.38 1013.50 1014.44 1014.86 1014.89 1014.91 1014.76 1014.86 1014.69 1014.61 1014.78 1014.87 1015.12 1015.24 1015.49 1015.17 1015.21 1015.08 1015.36 1015.05 1015.36 1015.30 1015.59 1015.60 1016.58 1016.65 1016.82 1016.97 1017.39 1017.67 1017.94 1018.63
1009.43 1010.42 1011.59 1012.24 1013.15 1014.03 1015.01 1015.18 1014.83 1014.17 1013.62 1013.26 1013.41 1014.00 1014.29 1014.35 1014.18 1014.06 1014.63 1014.46 1014.60 1014.71 1014.75 1014.90 1015.21 1015.12 1015.25 1014.63 1014.78 1015.16 1015.41 1015.68 1015.73 1015.52 1015.40 1016.07 1016.56 1016.75 1016.82 1017.07 1016.97 1017.31 1017.43
1008.76 1010.12 1010.87 1011.94 1012.73 1013.77 1014.26 1014.56 1014.42 1014.25 1013.87 1013.73 1013.76 1013.85 1013.76 1013.50 1013.53 1013.78 1014.05 1014.36 1014.46 1014.64 1014.59 1014.61 1014.93 1014.77 1014.91 1014.50 1014.65 1015.08 1015.23 1014.76 1015.54 1015.91 1015.42 1015.55 1016.15 1016.31 1016.10 1016.67 1016.78 1016.75 1017.15
1007.65 1009.39 1010.56 1011.79 1012.38 1013.03 1013.57 1013.67 1013.64 1013.44 1013.24 1013.50 1013.74 1013.70 1013.66 1013.78 1013.48 1013.88 1013.93 1013.89 1014.23 1014.29 1014.13 1014.28 1014.36 1014.37 1014.54 1014.74 1014.91 1014.41 1014.73 1014.58 1015.08 1015.28 1015.81 1015.49 1015.71 1015.88 1016.12 1016.21 1016.07 1016.19 1016.31
1007.57 1008.64 1009.81 1010.93 1011.62 1012.17 1012.52 1012.92 1012.95 1012.92 1012.94 1013.00 1013.46 1013.53 1013.67 1013.41 1013.77 1013.73 1013.24 1013.58 1013.96 1013.96 1014.05 1013.86 1013.98 1014.47 1013.99 1014.23 1014.51 1014.67 1014.77 1014.88 1014.70 1014.80 1015.07 1015.23 1015.26 1015.16 1015.16 1015.57 1015.65 1015.71 1015.93
1007.60 1008.15 1009.26 1010.19 1010.62 1011.11 1011.67 1012.07 1012.21 1012.34 1012.57 1012.88 1013.04 1013.14 1012.40 1012.94 1013.20 1012.90 1012.73 1013.01 1013.50 1013.73 1013.87 1013.71 1014.08 1014.26 1014.35 1013.86 1014.17 1014.51 1014.67 1014.77 1014.46 1014.46 1014.48 1014.50 1014.65 1014.37 1014.32 1014.74 1014.99 1015.28 1015.58
Thickness
5808 5803 5797 5796 5793 5789 5786 5784 5782 5779 5775 5773 5770 5768 5765 5763 5762 5760 5759 5756 5752 5750 5752 5751 5752 5752 5750 5751 5751 5750 5748 5747 5747 5747 5747 5745 5745 5746 5747 5748 5747 5745 5742
5815 5803 5796 5795 5793 5790 5786 5784 5781 5779 5775 5771 5770 5769 5766 5763 5761 5759 5758 5755 5751 5749 5749 5749 5749 5750 5750 5750 5750 5750 5748 5747 5746 5746 5746 5745 5744 5745 5745 5746 5745 5742 5741
5815 5801 5797 5793 5790 5787 5783 5782 5780 5777 5774 5771 5769 5767 5766 5762 5760 5759 5757 5754 5752 5750 5749 5748 5749 5748 5748 5748 5749 5748 5746 5746 5746 5747 5748 5749 5744 5742 5743 5743 5741 5741 5740
5816 5805 5798 5791 5788 5786 5782 5781 5779 5775 5773 5770 5767 5766 5765 5762 5759 5757 5756 5754 5753 5750 5750 5749 5748 5748 5747 5746 5745 5745 5745 5746 5747 5750 5752 5750 5747 5740 5740 5739 5739 5738 5737
5813 5809 5794 5790 5788 5783 5781 5779 5776 5773 5771 5769 5767 5765 5764 5761 5758 5756 5755 5754 5753 5752 5749 5749 5748 5747 5747 5744 5743 5744 5745 5747 5749 5755 5755 5749 5747 5737 5736 5736 5735 5735 5737
5810 5805 5789 5786 5783 5781 5777 5775 5775 5771 5768 5767 5766 5764 5762 5759 5757 5756 5755 5754 5752 5751 5748 5748 5747 5747 5748 5744 5742 5743 5744 5746 5747 5752 5750 5745 5743 5734 5733 5733 5733 5733 5733
5807 5798 5789 5785 5782 5779 5776 5773 5771 5768 5767 5764 5763 5761 5759 5758 5756 5755 5755 5754 5752 5752 5750 5748 5746 5746 5744 5745 5743 5743 5744 5746 5748 5748 5746 5739 5737 5733 5732 5730 5731 5730 5729
5804 5799 5789 5783 5780 5777 5775 5771 5769 5767 5764 5763 5761 5759 5757 5757 5755 5754 5754 5754 5752 5751 5750 5748 5746 5744 5744 5744 5743 5743 5743 5744 5746 5748 5742 5739 5732 5730 5729 5729 5729 5729 5727
5811 5802 5789 5784 5779 5774 5771 5769 5766 5765 5762 5760 5759 5758 5756 5755 5755 5753 5754 5754 5752 5750 5750 5749 5746 5744 5744 5744 5743 5743 5742 5743 5741 5748 5746 5739 5728 5727 5726 5727 5726 5727 5725
5814 5802 5791 5787 5781 5776 5772 5768 5765 5764 5763 5761 5758 5756 5754 5757 5754 5754 5754 5754 5752 5750 5749 5748 5746 5745 5744 5743 5744 5743 5741 5742 5748 5740 5745 5740 5728 5725 5725 5724 5726 5725 5724
5808 5800 5796 5790 5784 5778 5775 5769 5765 5763 5762 5760 5758 5755 5753 5756 5759 5757 5757 5755 5754 5751 5751 5750 5747 5746 5746 5746 5746 5744 5742 5746 5745 5743 5736 5736 5730 5724 5723 5722 5723 5724 5724
5802 5798 5797 5793 5787 5782 5781 5773 5769 5765 5764 5764 5762 5759 5758 5761 5761 5761 5760 5757 5755 5754 5754 5752 5751 5750 5749 5754 5748 5744 5743 5744 5743 5741 5735 5732 5728 5724 5721 5723 5723 5724 5725
5803 5799 5793 5795 5786 5786 5783 5777 5775 5769 5764 5766 5764 5761 5762 5763 5763 5761 5761 5760 5762 5758 5759 5756 5757 5756 5758 5756 5754 5751 5750 5746 5747 5743 5736 5730 5727 5723 5720 5719 5722 5724 5725
5801 5798 5795 5791 5791 5791 5788 5785 5782 5775 5769 5770 5771 5765 5765 5764 5766 5765 5762 5759 5760 5762 5759 5760 5761 5761 5758 5755 5758 5756 5751 5750 5746 5745 5738 5732 5727 5724 5720 5718 5721 5723 5724
5802 5799 5798 5795 5788 5788 5787 5785 5785 5781 5775 5776 5773 5769 5767 5765 5765 5765 5765 5762 5760 5760 5762 5762 5759 5755 5754 5755 5755 5753 5756 5753 5747 5746 5740 5734 5729 5725 5721 5721 5722 5725 5724
5807 5800 5798 5791 5785 5782 5780 5778 5779 5776 5777 5771 5770 5769 5765 5766 5765 5765 5763 5761 5760 5765 5765 5765 5759 5756 5754 5753 5755 5756 5753 5751 5746 5746 5745 5737 5732 5727 5724 5724 5725 5726 5726
5804 5799 5794 5790 5788 5778 5775 5773 5774 5775 5773 5772 5769 5765 5761 5762 5762 5761 5763 5763 5765 5768 5766 5767 5760 5755 5754 5753 5758 5762 5757 5755 5748 5748 5748 5746 5738 5733 5731 5731 5731 5729 5730
5800 5792 5788 5788 5787 5780 5774 5769 5773 5776 5776 5775 5765 5765 5761 5760 5763 5762 5763 5766 5770 5770 5769 5769 5764 5755 5757 5757 5761 5764 5762 5760 5754 5753 5755 5753 5748 5744 5738 5736 5735 5733 5732
5799 5792 5783 5780 5778 5775 5769 5764 5770 5773 5772 5771 5764 5764 5764 5764 5763 5762 5765 5768 5771 5773 5769 5772 5764 5763 5758 5759 5762 5766 5768 5763 5760 5756 5755 5756 5754 5752 5752 5745 5741 5739 5737
5798 5791 5782 5772 5765 5764 5759 5759 5761 5770 5769 5775 5771 5766 5762 5763 5765 5768 5771 5770 5771 5771 5770 5769 5767 5769 5763 5767 5768 5764 5769 5766 5762 5760 5758 5757 5759 5756 5756 5754 5747 5744 5741
5795 5790 5780 5771 5765 5756 5748 5748 5755 5758 5768 5773 5774 5768 5765 5766 5767 5769 5769 5771 5772 5772 5772 5770 5770 5766 5769 5770 5767 5762 5768 5766 5767 5765 5764 5758 5759 5757 5757 5756 5754 5753 5749
5797 5790 5780 5771 5763 5758 5753 5750 5754 5761 5768 5774 5773 5769 5767 5768 5771 5773 5771 5772 5772 5772 5772 5772 5769 5768 5767 5775 5765 5763 5751 5756 5759 5763 5767 5762 5760 5759 5759 5758 5760 5758 5759
5801 5790 5786 5774 5770 5763 5759 5755 5757 5760 5764 5765 5766 5768 5770 5773 5774 5773 5772 5770 5772 5771 5772 5774 5771 5771 5765 5773 5773 5761 5750 5752 5752 5757 5762 5765 5762 5763 5765 5762 5762 5763 5761
5809 5797 5787 5776 5771 5767 5763 5762 5762 5761 5764 5766 5766 5769 5770 5770 5772 5769 5769 5770 5770 5772 5775 5776 5777 5776 5774 5765 5769 5775 5772 5771 5753 5750 5758 5762 5764 5765 5764 5766 5767 5767 5767
5810 5801 5792 5782 5776 5773 5771 5768 5768 5768 5769 5771 5768 5767 5767 5771 5767 5768 5771 5769 5769 5772 5775 5779 5779 5775 5780 5775 5771 5766 5769 5768 5771 5758 5751 5756 5763 5769 5773 5771 5770 5770 5769
5808 5803 5795 5786 5783 5781 5778 5775 5774 5772 5770 5767 5768 5767 5774 5771 5769 5773 5773 5771 5770 5773 5775 5779 5778 5776 5776 5780 5777 5774 5770 5765 5767 5765 5761 5763 5760 5771 5779 5777 5776 5774 5772